Location: American Medical Response
(33.3472°N, 96.5511°W)
Time: 08:10:06
(UTC+00:00)

CZ-4B R/B - Pass Details

Date: 08 December 2021
Orbit: 378 x 442 km, 97.6° (Epoch: 17 January)

Event Time Altitude Azimuth Distance (km) Brightness Sun altitude
Rises 12:25:09 0° 135° (SE) 2,422 6.4 -10.9°
Reaches altitude 10° 12:27:39 10° 114° (ESE) 1,548 5.7 -10.4°
Maximum altitude 12:29:53 17° 72° (ENE) 1,176 4.3 -10.0°
Drops below altitude 10° 12:32:07 10° 29° (NNE) 1,534 4.2 -9.6°
Sets 12:34:34 0° 9° (N) 2,391 5.0 -9.1°
